Joplin, MO

12:02 AM CDT on July 26, 2017 (GMT -0500)
Joplin Regional

Weather History for KJLN - July, 2013

Change the Weather History Date:

Monday, July 1, 2013

  Actual Average Record
Temperature  
Mean Temperature 69 °F 79 °F  
Max Temperature 81 °F 89 °F 102 °F (1980)
Min Temperature 57 °F 69 °F 55 °F (1995)
Degree Days  
Heating Degree Days 0 0  
Month to date heating degree days 0 0  
Since 1 June heating degree days 12 5  
Since 1 July heating degree days 0 0  
Cooling Degree Days 4 14  
Month to date cooling degree days 4 14  
Year to date cooling degree days 471 512  
Since 1 June cooling degree days 327 332  
Growing Degree Days 21 (Base 50)    
Moisture  
Dew Point 55 °F    
Average Humidity 61    
Maximum Humidity 90    
Minimum Humidity 32    
Precipitation  
Precipitation 0.00 in 0.15 in 2.08 in (1988)
Month to date precipitation 0.00 0.15  
Year to date precipitation 27.78 23.96  
Snow  
Snow 0.00 in - - ()
Month to date snowfall 0.0  
Since 1 June snowfall 0.0  
Snow Depth 0.00 in    
Sea Level Pressure  
Sea Level Pressure 30.03 in    
Wind  
Wind Speed 6 mph (NNE)    
Max Wind Speed 18 mph    
Max Gust Speed 26 mph    
Visibility 10 miles    
Events      
T = Trace of Precipitation, MM = Missing Value Source: NWS Daily Summary

Daily Weather History Graph

Daily Weather History Graph

Search for Another Location

Airport or City:

Trip Planner

Search our weather history database for the weather conditions in past years. The results will help you decide how hot, cold, wet, or windy it might be!

Date:

Astronomy

Jul. 01, 2013 Rise Set
Actual Time 6:01 AM CDT 8:41 PM CDT
Civil Twilight 5:30 AM CDT 9:12 PM CDT
Nautical Twilight 4:52 AM CDT 9:51 PM CDT
Astronomical Twilight 4:09 AM CDT 10:34 PM CDT
Moon 1:26 AM CDT (7/1) 3:02 PM CDT (7/1)
Length of Visible Light 15h 41m
Length of Day
14h 40m
Waning Crescent, 35% of the Moon is Illuminated
Jul 1
Waning Crescent
Jul 8
New
Jul 15
First Quarter
Jul 22
Full
Jul 29
Last Quarter

Hourly Weather History & Observations

Time (CDT) Temp. Heat Index Dew Point Humidity Pressure Visibility Wind Dir Wind Speed Gust Speed Precip Events Conditions
12:53 AM 63.0 °F - 57.9 °F 84% 29.99 in 10.0 mi North 3.5 mph - N/A   Clear
1:53 AM 64.0 °F - 59.0 °F 84% 29.99 in 10.0 mi NNW 3.5 mph - N/A   Overcast
2:53 AM 64.0 °F - 59.0 °F 84% 29.99 in 10.0 mi North 3.5 mph - N/A   Overcast
3:53 AM 63.0 °F - 59.0 °F 87% 29.99 in 10.0 mi NW 4.6 mph - N/A   Mostly Cloudy
4:53 AM 63.0 °F - 57.9 °F 84% 30.00 in 10.0 mi North 4.6 mph - N/A   Mostly Cloudy
5:53 AM 61.0 °F - 57.0 °F 87% 30.02 in 10.0 mi North 5.8 mph - N/A   Mostly Cloudy
6:53 AM 63.0 °F - 57.0 °F 81% 30.03 in 10.0 mi North 5.8 mph - N/A   Partly Cloudy
7:53 AM 66.0 °F - 57.0 °F 73% 30.04 in 10.0 mi North 5.8 mph - N/A   Clear
8:53 AM 70.0 °F - 57.9 °F 65% 30.05 in 10.0 mi North 5.8 mph - N/A   Clear
10:53 AM 77.0 °F - 54.0 °F 45% 30.05 in 10.0 mi NE 8.1 mph - N/A   Clear
11:53 AM 79.0 °F - 55.9 °F 45% 30.05 in 10.0 mi NE 15.0 mph 18.4 mph N/A   Partly Cloudy
12:53 PM 81.0 °F 80.7 °F 55.0 °F 41% 30.05 in 10.0 mi NNE 8.1 mph 17.3 mph N/A   Scattered Clouds
1:53 PM 80.1 °F - 50.0 °F 35% 30.04 in 10.0 mi NE 12.7 mph 18.4 mph N/A   Partly Cloudy
2:53 PM 79.0 °F - 48.0 °F 34% 30.04 in 10.0 mi NNE 8.1 mph - N/A   Clear
3:53 PM 79.0 °F - 46.0 °F 31% 30.03 in 10.0 mi North 11.5 mph 20.7 mph N/A   Clear
4:53 PM 79.0 °F - 51.1 °F 38% 30.03 in 10.0 mi NNE 9.2 mph 18.4 mph N/A   Partly Cloudy
5:53 PM 75.9 °F - 52.0 °F 43% 30.03 in 10.0 mi NNE 5.8 mph - N/A   Clear
6:53 PM 78.1 °F - 54.0 °F 43% 30.02 in 10.0 mi NE 5.8 mph - N/A   Clear
7:53 PM 75.0 °F - 55.9 °F 51% 30.03 in 10.0 mi NNE 5.8 mph - N/A   Clear
8:53 PM 70.0 °F - 52.0 °F 53% 30.04 in 10.0 mi North 4.6 mph - N/A   Clear
9:53 PM 64.9 °F - 54.0 °F 68% 30.04 in 10.0 mi Calm Calm - N/A   Clear
10:53 PM 63.0 °F - 54.0 °F 72% 30.05 in 10.0 mi North 3.5 mph - N/A   Clear
11:53 PM 61.0 °F - 53.1 °F 75% 30.06 in 10.0 mi Calm Calm - N/A   Clear